Time,TemperatureF,DewpointF,PressureIn,WindDirection,WindDirectionDegrees,WindSpeedMPH,WindSpeedGustMPH,Humidity,HourlyPrecipIn,Conditions,Clouds,dailyrainin,SoftwareType,DateUTC
2013-03-01 00:02:00,35.0,27.0,29.82,North,0,0.0,0.0,72,0.00,,,0.00,,2013-03-01 05:02:00,
2013-03-01 00:11:00,35.0,27.0,29.82,North,0,0.0,0.0,72,0.00,,,0.00,,2013-03-01 05:11:00,
2013-03-01 00:22:00,34.0,26.0,29.82,North,0,0.0,0.0,73,0.00,,,0.00,,2013-03-01 05:22:00,
2013-03-01 00:33:00,34.0,27.0,29.82,North,0,0.0,0.0,74,0.00,,,0.00,,2013-03-01 05:33:00,
2013-03-01 00:42:00,34.0,27.0,29.82,North,0,0.0,0.0,74,0.00,,,0.00,,2013-03-01 05:42:00,
2013-03-01 00:52:00,33.0,26.0,29.82,North,0,0.0,0.0,74,0.00,,,0.00,,2013-03-01 05:52:00,
2013-03-01 01:02:00,32.0,25.0,29.83,North,0,0.0,0.0,76,0.00,,,0.00,,2013-03-01 06:02:00,
2013-03-01 01:12:00,32.0,26.0,29.84,North,0,0.0,0.0,77,0.00,,,0.00,,2013-03-01 06:12:00,
2013-03-01 01:22:00,32.0,26.0,29.84,North,0,0.0,0.0,77,0.00,,,0.00,,2013-03-01 06:22:00,
2013-03-01 01:32:00,31.0,25.0,29.84,North,0,0.0,0.0,78,0.00,,,0.00,,2013-03-01 06:32:00,
2013-03-01 01:42:00,31.0,25.0,29.84,North,0,0.0,0.0,78,0.00,,,0.00,,2013-03-01 06:42:00,
2013-03-01 01:52:00,31.0,25.0,29.84,North,0,0.0,0.0,79,0.00,,,0.00,,2013-03-01 06:52:00,
2013-03-01 02:02:00,30.0,25.0,29.84,North,0,0.0,0.0,80,0.00,,,0.00,,2013-03-01 07:02:00,
2013-03-01 02:12:00,30.0,25.0,29.84,North,0,0.0,0.0,80,0.00,,,0.00,,2013-03-01 07:12:00,
2013-03-01 02:22:00,29.0,24.0,29.84,North,0,0.0,0.0,80,0.00,,,0.00,,2013-03-01 07:22:00,
2013-03-01 02:32:00,29.0,24.0,29.83,North,0,0.0,0.0,81,0.00,,,0.00,,2013-03-01 07:32:00,
2013-03-01 02:42:00,29.0,24.0,29.83,North,0,0.0,0.0,81,0.00,,,0.00,,2013-03-01 07:42:00,
2013-03-01 02:52:00,29.0,24.0,29.83,North,0,0.0,0.0,81,0.00,,,0.00,,2013-03-01 07:52:00,
2013-03-01 03:02:00,28.0,24.0,29.82,North,0,0.0,0.0,84,0.00,,,0.00,,2013-03-01 08:02:00,
2013-03-01 03:12:00,28.0,24.0,29.82,North,0,0.0,0.0,84,0.00,,,0.00,,2013-03-01 08:12:00,
2013-03-01 03:22:00,28.0,24.0,29.82,North,0,0.0,0.0,84,0.00,,,0.00,,2013-03-01 08:22:00,
2013-03-01 03:32:00,28.0,24.0,29.82,North,0,0.0,0.0,85,0.00,,,0.00,,2013-03-01 08:32:00,
2013-03-01 03:42:00,28.0,24.0,29.82,North,0,0.0,0.0,85,0.00,,,0.00,,2013-03-01 08:42:00,
2013-03-01 03:52:00,27.0,23.0,29.83,North,0,0.0,0.0,85,0.00,,,0.00,,2013-03-01 08:52:00,
2013-03-01 04:02:00,27.0,23.0,29.83,North,0,0.0,0.0,85,0.00,,,0.00,,2013-03-01 09:02:00,
2013-03-01 04:12:00,27.0,23.0,29.83,North,0,0.0,0.0,85,0.00,,,0.00,,2013-03-01 09:12:00,
2013-03-01 04:22:00,27.0,23.0,29.83,North,0,0.0,0.0,86,0.00,,,0.00,,2013-03-01 09:22:00,
2013-03-01 04:32:00,27.0,24.0,29.83,North,0,0.0,0.0,87,0.00,,,0.00,,2013-03-01 09:32:00,
2013-03-01 04:42:00,27.0,24.0,29.83,North,0,0.0,0.0,87,0.00,,,0.00,,2013-03-01 09:42:00,
2013-03-01 04:52:00,27.0,24.0,29.83,North,0,0.0,0.0,87,0.00,,,0.00,,2013-03-01 09:52:00,
2013-03-01 05:02:00,27.0,24.0,29.84,North,0,0.0,0.0,88,0.00,,,0.00,,2013-03-01 10:02:00,
2013-03-01 05:11:00,27.0,24.0,29.84,North,0,0.0,0.0,88,0.00,,,0.00,,2013-03-01 10:11:00,
2013-03-01 05:22:00,27.0,24.0,29.84,North,0,0.0,0.0,88,0.00,,,0.00,,2013-03-01 10:22:00,
2013-03-01 05:32:00,27.0,24.0,29.84,North,0,0.0,0.0,88,0.00,,,0.00,,2013-03-01 10:32:00,
2013-03-01 05:42:00,27.0,24.0,29.84,North,0,0.0,0.0,88,0.00,,,0.00,,2013-03-01 10:42:00,
2013-03-01 05:53:00,26.0,23.0,29.84,North,0,0.0,0.0,89,0.00,,,0.00,,2013-03-01 10:53:00,
2013-03-01 06:01:00,26.0,23.0,29.84,North,0,0.0,0.0,89,0.00,,,0.00,,2013-03-01 11:01:00,
2013-03-01 06:11:00,26.0,23.0,29.84,North,0,0.0,0.0,89,0.00,,,0.00,,2013-03-01 11:11:00,
2013-03-01 06:22:00,27.0,24.0,29.85,North,0,0.0,0.0,90,0.00,,,0.00,,2013-03-01 11:22:00,
2013-03-01 06:32:00,27.0,25.0,29.85,North,0,0.0,0.0,91,0.00,,,0.00,,2013-03-01 11:32:00,
2013-03-01 06:42:00,27.0,25.0,29.85,North,0,0.0,0.0,91,0.00,,,0.00,,2013-03-01 11:42:00,
2013-03-01 06:52:00,27.0,25.0,29.85,North,0,0.0,0.0,91,0.00,,,0.00,,2013-03-01 11:52:00,
2013-03-01 07:02:00,28.0,26.0,29.85,North,0,0.0,0.0,91,0.00,,,0.00,,2013-03-01 12:02:00,
2013-03-01 07:11:00,28.0,26.0,29.85,North,0,0.0,0.0,91,0.00,,,0.00,,2013-03-01 12:11:00,
2013-03-01 07:21:00,28.0,26.0,29.86,North,0,0.0,0.0,91,0.00,,,0.00,,2013-03-01 12:21:00,
2013-03-01 07:32:00,28.0,26.0,29.86,North,0,0.0,0.0,91,0.00,,,0.00,,2013-03-01 12:32:00,
2013-03-01 07:42:00,28.0,26.0,29.86,North,0,0.0,0.0,91,0.00,,,0.00,,2013-03-01 12:42:00,
2013-03-01 07:52:00,28.0,26.0,29.86,North,0,0.0,0.0,91,0.00,,,0.00,,2013-03-01 12:52:00,
2013-03-01 08:01:00,29.0,27.0,29.86,North,0,0.0,0.0,91,0.00,,,0.00,,2013-03-01 13:01:00,
2013-03-01 08:11:00,33.0,30.0,29.86,North,0,0.0,1.0,88,0.00,,,0.00,,2013-03-01 13:11:00,
2013-03-01 08:22:00,33.0,30.0,29.86,North,0,0.0,1.0,88,0.00,,,0.00,,2013-03-01 13:22:00,
2013-03-01 08:32:00,33.0,30.0,29.86,North,0,0.0,1.0,88,0.00,,,0.00,,2013-03-01 13:32:00,
2013-03-01 08:42:00,33.0,30.0,29.86,North,0,0.0,1.0,88,0.00,,,0.00,,2013-03-01 13:42:00,
2013-03-01 08:52:00,37.0,31.0,29.86,North,0,0.0,2.0,79,0.00,,,0.00,,2013-03-01 13:52:00,
2013-03-01 09:02:00,39.0,31.0,29.86,NW,326,1.0,4.0,72,0.00,,,0.00,,2013-03-01 14:02:00,
2013-03-01 09:11:00,39.0,31.0,29.86,NW,326,1.0,4.0,72,0.00,,,0.00,,2013-03-01 14:11:00,
2013-03-01 09:21:00,40.0,31.0,29.86,North,0,0.0,4.0,70,0.00,,,0.00,,2013-03-01 14:21:00,
2013-03-01 09:32:00,43.0,32.0,29.86,North,0,0.0,3.0,66,0.00,,,0.00,,2013-03-01 14:32:00,
2013-03-01 09:42:00,43.0,32.0,29.86,North,0,0.0,3.0,66,0.00,,,0.00,,2013-03-01 14:42:00,
2013-03-01 09:52:00,44.0,32.0,29.86,North,0,0.0,4.0,63,0.00,,,0.00,,2013-03-01 14:52:00,
2013-03-01 10:02:00,46.0,32.0,29.86,NNW,336,1.0,4.0,57,0.00,,,0.00,,2013-03-01 15:02:00,
2013-03-01 10:11:00,46.0,31.0,29.86,NNE,24,1.0,6.0,56,0.00,,,0.00,,2013-03-01 15:11:00,
2013-03-01 10:21:00,46.0,31.0,29.86,NNE,24,1.0,6.0,56,0.00,,,0.00,,2013-03-01 15:21:00,
2013-03-01 10:32:00,47.0,32.0,29.85,North,0,0.0,5.0,56,0.00,,,0.00,,2013-03-01 15:32:00,
2013-03-01 10:42:00,47.0,32.0,29.85,North,0,0.0,5.0,56,0.00,,,0.00,,2013-03-01 15:42:00,
2013-03-01 10:52:00,47.0,32.0,29.85,NE,53,1.0,5.0,55,0.00,,,0.00,,2013-03-01 15:52:00,
2013-03-01 11:01:00,46.0,31.0,29.85,North,0,0.0,3.0,56,0.00,,,0.00,,2013-03-01 16:01:00,
2013-03-01 11:11:00,46.0,31.0,29.85,North,0,0.0,3.0,56,0.00,,,0.00,,2013-03-01 16:11:00,
2013-03-01 11:21:00,47.0,32.0,29.85,North,0,0.0,5.0,55,0.00,,,0.00,,2013-03-01 16:21:00,
2013-03-01 11:32:00,46.0,30.0,29.86,NNW,346,1.0,4.0,54,0.00,,,0.00,,2013-03-01 16:32:00,
2013-03-01 11:42:00,46.0,30.0,29.86,NNW,346,1.0,4.0,54,0.00,,,0.00,,2013-03-01 16:42:00,
2013-03-01 11:52:00,46.0,30.0,29.86,NW,322,3.0,7.0,54,0.00,,,0.00,,2013-03-01 16:52:00,
2013-03-01 12:01:00,46.0,30.0,29.86,NNW,340,1.0,4.0,53,0.00,,,0.00,,2013-03-01 17:01:00,
2013-03-01 12:11:00,46.0,29.0,29.85,North,0,0.0,4.0,52,0.00,,,0.00,,2013-03-01 17:11:00,
2013-03-01 12:21:00,46.0,29.0,29.85,North,0,0.0,4.0,52,0.00,,,0.00,,2013-03-01 17:21:00,
2013-03-01 12:32:00,47.0,32.0,29.85,NNW,330,1.0,4.0,55,0.00,,,0.00,,2013-03-01 17:32:00,
2013-03-01 12:42:00,46.0,31.0,29.85,NE,50,1.0,4.0,55,0.00,,,0.00,,2013-03-01 17:42:00,
2013-03-01 12:52:00,46.0,31.0,29.85,NE,50,1.0,4.0,55,0.00,,,0.00,,2013-03-01 17:52:00,
2013-03-01 13:01:00,45.0,31.0,29.85,North,0,0.0,2.0,57,0.00,,,0.00,,2013-03-01 18:01:00,
2013-03-01 13:12:00,45.0,31.0,29.85,North,0,0.0,2.0,57,0.00,,,0.00,,2013-03-01 18:12:00,
2013-03-01 13:22:00,45.0,30.0,29.84,North,0,0.0,2.0,56,0.00,,,0.00,,2013-03-01 18:22:00,
2013-03-01 13:32:00,44.0,31.0,29.84,North,0,0.0,4.0,59,0.00,,,0.00,,2013-03-01 18:32:00,
2013-03-01 13:42:00,44.0,30.0,29.84,North,0,0.0,3.0,58,0.00,,,0.00,,2013-03-01 18:42:00,
2013-03-01 13:52:00,44.0,30.0,29.84,North,0,0.0,3.0,58,0.00,,,0.00,,2013-03-01 18:52:00,
2013-03-01 14:01:00,44.0,30.0,29.84,NNW,334,1.0,5.0,57,0.00,,,0.00,,2013-03-01 19:01:00,
2013-03-01 14:11:00,44.0,30.0,29.84,NNW,334,1.0,5.0,57,0.00,,,0.00,,2013-03-01 19:11:00,
2013-03-01 14:21:00,44.0,30.0,29.83,North,0,0.0,3.0,57,0.00,,,0.00,,2013-03-01 19:21:00,
2013-03-01 14:32:00,44.0,30.0,29.83,North,0,0.0,4.0,57,0.00,,,0.00,,2013-03-01 19:32:00,
2013-03-01 14:42:00,44.0,30.0,29.83,North,0,0.0,4.0,57,0.00,,,0.00,,2013-03-01 19:42:00,
2013-03-01 14:52:00,44.0,30.0,29.83,North,0,0.0,2.0,57,0.00,,,0.00,,2013-03-01 19:52:00,
2013-03-01 15:01:00,44.0,30.0,29.83,North,0,0.0,3.0,58,0.00,,,0.00,,2013-03-01 20:01:00,
2013-03-01 15:11:00,44.0,30.0,29.83,North,0,0.0,3.0,58,0.00,,,0.00,,2013-03-01 20:11:00,
2013-03-01 15:21:00,44.0,31.0,29.83,North,0,0.0,2.0,61,0.00,,,0.00,,2013-03-01 20:21:00,
2013-03-01 15:32:00,44.0,31.0,29.83,North,0,0.0,2.0,59,0.00,,,0.00,,2013-03-01 20:32:00,
2013-03-01 15:42:00,44.0,31.0,29.83,North,0,0.0,2.0,59,0.00,,,0.00,,2013-03-01 20:42:00,
2013-03-01 15:52:00,44.0,31.0,29.83,North,0,0.0,2.0,59,0.00,,,0.00,,2013-03-01 20:52:00,
2013-03-01 16:01:00,44.0,31.0,29.83,North,0,0.0,1.0,60,0.00,,,0.00,,2013-03-01 21:01:00,
2013-03-01 16:11:00,44.0,31.0,29.83,North,0,0.0,2.0,60,0.00,,,0.00,,2013-03-01 21:11:00,
2013-03-01 16:21:00,44.0,31.0,29.83,North,0,0.0,2.0,60,0.00,,,0.00,,2013-03-01 21:21:00,
2013-03-01 16:32:00,44.0,31.0,29.83,North,0,0.0,2.0,60,0.00,,,0.00,,2013-03-01 21:32:00,
2013-03-01 16:42:00,44.0,31.0,29.83,North,0,0.0,0.0,60,0.00,,,0.00,,2013-03-01 21:42:00,
2013-03-01 16:52:00,44.0,31.0,29.83,North,0,0.0,0.0,60,0.00,,,0.00,,2013-03-01 21:52:00,
2013-03-01 17:01:00,44.0,31.0,29.83,North,0,0.0,0.0,60,0.00,,,0.00,,2013-03-01 22:01:00,
2013-03-01 17:12:00,44.0,31.0,29.83,North,0,0.0,0.0,61,0.00,,,0.00,,2013-03-01 22:12:00,
2013-03-01 17:21:00,44.0,31.0,29.83,North,0,0.0,0.0,61,0.00,,,0.00,,2013-03-01 22:21:00,
2013-03-01 17:32:00,43.0,31.0,29.84,North,0,0.0,0.0,63,0.00,,,0.00,,2013-03-01 22:32:00,
2013-03-01 17:42:00,43.0,31.0,29.84,North,0,0.0,0.0,63,0.00,,,0.00,,2013-03-01 22:42:00,
2013-03-01 17:51:00,43.0,31.0,29.84,North,0,0.0,0.0,62,0.00,,,0.00,,2013-03-01 22:51:00,
2013-03-01 18:01:00,43.0,31.0,29.85,North,0,0.0,0.0,63,0.00,,,0.00,,2013-03-01 23:01:00,
2013-03-01 18:11:00,43.0,31.0,29.85,North,0,0.0,0.0,63,0.00,,,0.00,,2013-03-01 23:11:00,
2013-03-01 18:21:00,43.0,32.0,29.85,North,0,0.0,0.0,64,0.00,,,0.00,,2013-03-01 23:21:00,
2013-03-01 18:32:00,42.0,31.0,29.85,North,0,0.0,0.0,65,0.00,,,0.00,,2013-03-01 23:32:00,
2013-03-01 18:41:00,42.0,31.0,29.85,North,0,0.0,0.0,65,0.00,,,0.00,,2013-03-01 23:41:00,
2013-03-01 18:52:00,42.0,31.0,29.86,North,0,0.0,0.0,66,0.00,,,0.00,,2013-03-01 23:52:00,
2013-03-01 19:02:00,41.0,31.0,29.86,North,0,0.0,0.0,68,0.00,,,0.00,,2013-03-02 00:02:00,
2013-03-01 19:12:00,41.0,31.0,29.86,North,0,0.0,0.0,68,0.00,,,0.00,,2013-03-02 00:12:00,
2013-03-01 19:22:00,41.0,31.0,29.87,North,0,0.0,0.0,68,0.00,,,0.00,,2013-03-02 00:22:00,
2013-03-01 19:32:00,41.0,32.0,29.87,North,0,0.0,0.0,70,0.00,,,0.00,,2013-03-02 00:32:00,
2013-03-01 19:42:00,40.0,32.0,29.88,North,0,0.0,0.0,72,0.00,,,0.00,,2013-03-02 00:42:00,
2013-03-01 19:52:00,40.0,32.0,29.88,North,0,0.0,0.0,72,0.00,,,0.00,,2013-03-02 00:52:00,
2013-03-01 20:01:00,40.0,32.0,29.88,North,0,0.0,0.0,73,0.00,,,0.00,,2013-03-02 01:01:00,
2013-03-01 20:11:00,40.0,32.0,29.88,North,0,0.0,0.0,73,0.00,,,0.00,,2013-03-02 01:11:00,
2013-03-01 20:21:00,40.0,32.0,29.88,North,0,0.0,0.0,73,0.00,,,0.00,,2013-03-02 01:21:00,
2013-03-01 20:32:00,39.0,31.0,29.88,North,0,0.0,0.0,74,0.00,,,0.00,,2013-03-02 01:32:00,
2013-03-01 20:41:00,39.0,31.0,29.88,North,0,0.0,0.0,74,0.00,,,0.00,,2013-03-02 01:41:00,
2013-03-01 20:52:00,39.0,31.0,29.88,North,0,0.0,0.0,74,0.00,,,0.00,,2013-03-02 01:52:00,
2013-03-01 21:01:00,39.0,31.0,29.88,North,0,0.0,0.0,72,0.00,,,0.00,,2013-03-02 02:01:00,
2013-03-01 21:11:00,39.0,31.0,29.88,North,0,0.0,0.0,72,0.00,,,0.00,,2013-03-02 02:11:00,
2013-03-01 21:22:00,39.0,31.0,29.88,North,0,0.0,2.0,72,0.00,,,0.00,,2013-03-02 02:22:00,
2013-03-01 21:32:00,39.0,30.0,29.88,North,0,0.0,0.0,71,0.00,,,0.00,,2013-03-02 02:32:00,
2013-03-01 21:42:00,39.0,30.0,29.88,North,0,0.0,0.0,71,0.00,,,0.00,,2013-03-02 02:42:00,
2013-03-01 21:52:00,39.0,30.0,29.88,North,0,0.0,0.0,70,0.00,,,0.00,,2013-03-02 02:52:00,
2013-03-01 22:02:00,39.0,30.0,29.88,North,0,0.0,0.0,69,0.00,,,0.00,,2013-03-02 03:02:00,
2013-03-01 22:11:00,39.0,30.0,29.88,North,0,0.0,0.0,69,0.00,,,0.00,,2013-03-02 03:11:00,
2013-03-01 22:22:00,39.0,30.0,29.89,North,0,0.0,0.0,69,0.00,,,0.00,,2013-03-02 03:22:00,
2013-03-01 22:32:00,39.0,29.0,29.89,North,0,0.0,0.0,68,0.00,,,0.00,,2013-03-02 03:32:00,
2013-03-01 22:42:00,39.0,29.0,29.89,North,0,0.0,0.0,68,0.00,,,0.00,,2013-03-02 03:42:00,
2013-03-01 22:52:00,38.0,28.0,29.89,North,0,0.0,0.0,68,0.00,,,0.00,,2013-03-02 03:52:00,
2013-03-01 23:02:00,38.0,28.0,29.88,North,0,0.0,0.0,67,0.00,,,0.00,,2013-03-02 04:02:00,
2013-03-01 23:11:00,38.0,28.0,29.88,North,0,0.0,0.0,67,0.00,,,0.00,,2013-03-02 04:11:00,
2013-03-01 23:21:00,38.0,28.0,29.88,North,0,0.0,0.0,67,0.00,,,0.00,,2013-03-02 04:21:00,
2013-03-01 23:32:00,36.0,26.0,29.88,North,0,0.0,0.0,68,0.00,,,0.00,,2013-03-02 04:32:00,
2013-03-01 23:42:00,36.0,26.0,29.88,North,0,0.0,0.0,68,0.00,,,0.00,,2013-03-02 04:42:00,
2013-03-01 23:52:00,36.0,27.0,29.88,North,0,0.0,0.0,69,0.00,,,0.00,,2013-03-02 04:52:00,